Galesburg, IL

1:50 AM CDT on March 29, 2017 (GMT -0500)
Galesburg Municipal

Weather History for KGBG - November, 2010

Change the Weather History Date:

Friday, November 12, 2010

  Actual Average Record
Temperature  
Mean Temperature 58 °F -  
Max Temperature 71 °F 46 °F 71 °F (2010)
Min Temperature 46 °F 29 °F 8 °F (1986)
Degree Days  
Heating Degree Days 6    
Growing Degree Days 8 (Base 50)    
Moisture  
Dew Point 45 °F    
Average Humidity 66    
Maximum Humidity 93    
Minimum Humidity 33    
Precipitation  
Precipitation 0.06 in - - ()
Sea Level Pressure  
Sea Level Pressure 30.20 in    
Wind  
Wind Speed 7 mph (East)    
Max Wind Speed 13 mph    
Max Gust Speed 17 mph    
Visibility 10 miles    
Events Rain    
Averages and records for this station are not official NWS values.
T = Trace of Precipitation, MM = Missing Value Source: NWS Daily Summary

Daily Weather History Graph

Daily Weather History Graph

Search for Another Location

Airport or City:

Trip Planner

Search our weather history database for the weather conditions in past years. The results will help you decide how hot, cold, wet, or windy it might be!

Date:

Astronomy

Nov. 12, 2010 Rise Set
Actual Time 6:45 AM CST 4:45 PM CST
Civil Twilight 6:16 AM CST 5:15 PM CST
Nautical Twilight 5:43 AM CST 5:48 PM CST
Astronomical Twilight 5:10 AM CST 6:20 PM CST
Moon 12:15 PM CST (11/12) 10:53 PM CST (11/12)
Length of Visible Light 10h 58m
Length of Day
10h 00m
Waxing Crescent, 41% of the Moon is Illuminated
Nov 12
Waxing Crescent
Nov 13
First Quarter
Nov 21
Full
Nov 28
Last Quarter
Dec 5
New

Hourly Weather History & Observations

Time (CST) Temp. Windchill Dew Point Humidity Pressure Visibility Wind Dir Wind Speed Gust Speed Precip Events Conditions
12:05 AM 48.2 °F - 42.8 °F 82% 30.36 in 10.0 mi NNW 5.8 mph - N/A   Overcast
12:25 AM 48.2 °F - 42.8 °F 82% 30.34 in 10.0 mi North 8.1 mph - N/A   Overcast
12:45 AM 48.2 °F - 42.8 °F 82% 30.34 in 10.0 mi North 8.1 mph - N/A   Overcast
1:05 AM 48.2 °F - 42.8 °F 82% 30.33 in 10.0 mi NNE 6.9 mph - N/A   Overcast
1:25 AM 48.2 °F - 42.8 °F 82% 30.32 in 10.0 mi NE 8.1 mph - N/A   Overcast
1:45 AM 48.2 °F - 41.0 °F 76% 30.32 in 10.0 mi NE 9.2 mph - N/A   Mostly Cloudy
2:05 AM 48.2 °F - 41.0 °F 76% 30.32 in 10.0 mi NNE 6.9 mph - N/A   Mostly Cloudy
2:45 AM 48.2 °F - 42.8 °F 82% 30.31 in 10.0 mi NE 11.5 mph - N/A   Overcast
3:05 AM 48.2 °F - 42.8 °F 82% 30.30 in 10.0 mi NE 10.4 mph - N/A   Overcast
3:25 AM 48.2 °F - 41.0 °F 76% 30.30 in 10.0 mi ENE 10.4 mph - N/A   Overcast
3:45 AM 48.2 °F - 42.8 °F 82% 30.30 in 10.0 mi ENE 9.2 mph - N/A   Overcast
4:05 AM 48.2 °F - 42.8 °F 82% 30.30 in 10.0 mi NE 6.9 mph - N/A   Mostly Cloudy
4:25 AM 46.4 °F 41.9 °F 42.8 °F 87% 30.30 in 10.0 mi ENE 9.2 mph - N/A   Scattered Clouds
4:45 AM 46.4 °F 42.9 °F 42.8 °F 87% 30.30 in 10.0 mi ENE 6.9 mph - N/A   Clear
5:05 AM 46.4 °F 42.4 °F 42.8 °F 87% 30.30 in 10.0 mi East 8.1 mph - N/A   Clear
5:25 AM 46.4 °F 42.4 °F 42.8 °F 87% 30.29 in 10.0 mi East 8.1 mph - N/A   Clear
5:45 AM 46.4 °F 41.1 °F 42.8 °F 87% 30.29 in 10.0 mi ENE 11.5 mph - N/A   Clear
6:05 AM 46.4 °F 41.9 °F 42.8 °F 87% 30.29 in 10.0 mi East 9.2 mph - N/A   Clear
6:25 AM 46.4 °F 44.3 °F 42.8 °F 87% 30.29 in 10.0 mi East 4.6 mph - N/A   Clear
6:45 AM 46.4 °F 44.3 °F 44.6 °F 93% 30.29 in 10.0 mi ENE 4.6 mph - N/A   Clear
7:05 AM 46.4 °F 42.9 °F 44.6 °F 93% 30.29 in 7.0 mi ENE 6.9 mph - N/A   Clear
7:25 AM 48.2 °F - 44.6 °F 87% 30.29 in 7.0 mi East 8.1 mph - N/A   Clear
7:45 AM 50.0 °F - 46.4 °F 87% 30.29 in 7.0 mi East 9.2 mph - N/A   Clear
8:05 AM 51.8 °F - 46.4 °F 82% 30.29 in 7.0 mi East 9.2 mph 16.1 mph N/A   Clear
8:25 AM 51.8 °F - 46.4 °F 82% 30.28 in 7.0 mi East 11.5 mph 17.3 mph N/A   Clear
8:45 AM 53.6 °F - 46.4 °F 77% 30.28 in 7.0 mi ESE 11.5 mph 16.1 mph N/A   Clear
9:05 AM 53.6 °F - 46.4 °F 77% 30.28 in 7.0 mi East 12.7 mph - N/A   Clear
9:25 AM 55.4 °F - 48.2 °F 77% 30.27 in 7.0 mi ESE 9.2 mph - N/A   Clear
9:45 AM 57.2 °F - 48.2 °F 72% 30.27 in 7.0 mi ESE 6.9 mph - N/A   Clear
10:05 AM 57.2 °F - 46.4 °F 67% 30.27 in 10.0 mi ESE 9.2 mph - N/A   Clear
10:25 AM 59.0 °F - 48.2 °F 67% 30.27 in 10.0 mi ESE 5.8 mph - N/A   Clear
10:45 AM 60.8 °F - 46.4 °F 59% 30.26 in 10.0 mi SE 8.1 mph - N/A   Clear
11:05 AM 62.6 °F - 46.4 °F 55% 30.25 in 10.0 mi ESE 8.1 mph - N/A   Clear
11:25 AM 64.4 °F - 46.4 °F 52% 30.24 in 10.0 mi ESE 8.1 mph - N/A   Clear
11:45 AM 66.2 °F - 46.4 °F 49% 30.23 in 10.0 mi ESE 6.9 mph - N/A   Clear
12:05 PM 68.0 °F - 44.6 °F 43% 30.22 in - South 8.1 mph - N/A   Unknown
12:25 PM 68.0 °F - 42.8 °F 40% 30.21 in 10.0 mi SSE 6.9 mph - N/A   Clear
12:45 PM 69.8 °F - 42.8 °F 38% 30.19 in 10.0 mi South 8.1 mph - N/A   Clear
1:05 PM 71.6 °F - 41.0 °F 33% 30.19 in 10.0 mi South 9.2 mph - N/A   Clear
1:25 PM 69.8 °F - 41.0 °F 35% 30.18 in 10.0 mi South 9.2 mph 17.3 mph N/A   Clear
1:45 PM 69.8 °F - 41.0 °F 35% 30.17 in 10.0 mi South 8.1 mph - N/A   Clear
2:05 PM 69.8 °F - 41.0 °F 35% 30.16 in 10.0 mi South 9.2 mph - N/A   Clear
2:25 PM 69.8 °F - 42.8 °F 38% 30.16 in 10.0 mi South 8.1 mph - N/A   Clear
2:45 PM 69.8 °F - 42.8 °F 38% 30.15 in 10.0 mi SSE 6.9 mph - N/A   Mostly Cloudy
3:05 PM 68.0 °F - 42.8 °F 40% 30.15 in 10.0 mi SSE 4.6 mph - N/A   Overcast
3:25 PM 68.0 °F - 42.8 °F 40% 30.14 in 10.0 mi Calm Calm - N/A Rain Light Rain
3:45 PM 66.2 °F - 46.4 °F 49% 30.13 in 10.0 mi ESE 3.5 mph - N/A Rain Light Rain
4:05 PM 64.4 °F - 46.4 °F 52% 30.13 in 10.0 mi Calm Calm - N/A Rain Light Rain
4:25 PM 64.4 °F - 46.4 °F 52% 30.12 in 10.0 mi North - - N/A   Scattered Clouds
4:45 PM 62.6 °F - 51.8 °F 68% 30.12 in 10.0 mi South 3.5 mph - N/A   Mostly Cloudy
5:05 PM 62.6 °F - 48.2 °F 59% 30.11 in 10.0 mi Calm Calm - N/A   Overcast
5:25 PM 60.8 °F - 51.8 °F 72% 30.11 in 10.0 mi Calm Calm - N/A   Overcast
5:45 PM 60.8 °F - 50.0 °F 68% 30.10 in 10.0 mi Calm Calm - N/A   Overcast
6:05 PM 60.8 °F - 50.0 °F 68% 30.10 in 10.0 mi Calm Calm - N/A   Light Drizzle
6:25 PM 60.8 °F - 48.2 °F 63% 30.10 in 10.0 mi ESE 3.5 mph - N/A   Overcast
6:45 PM 62.6 °F - 44.6 °F 52% 30.09 in 10.0 mi Calm Calm - N/A Rain Light Rain
7:05 PM 62.6 °F - 44.6 °F 52% 30.09 in 10.0 mi Calm Calm - N/A   Overcast
7:25 PM 60.8 °F - 44.6 °F 55% 30.08 in 10.0 mi ESE 4.6 mph - N/A   Overcast
7:45 PM 60.8 °F - 44.6 °F 55% 30.08 in 10.0 mi ESE 4.6 mph - N/A   Overcast
8:05 PM 60.8 °F - 44.6 °F 55% 30.08 in 10.0 mi SE 3.5 mph - N/A   Overcast
8:25 PM 60.8 °F - 44.6 °F 55% 30.09 in 10.0 mi ESE 5.8 mph - N/A   Overcast
8:45 PM 59.0 °F - 46.4 °F 63% 30.07 in 10.0 mi East 3.5 mph - 0.01 in Rain Rain
9:05 PM 57.2 °F - 46.4 °F 67% 30.05 in 10.0 mi East 5.8 mph - N/A   Overcast
9:25 PM 59.0 °F - 44.6 °F 59% 30.05 in 10.0 mi ESE 5.8 mph - N/A   Overcast
9:45 PM 59.0 °F - 44.6 °F 59% 30.05 in 10.0 mi ESE 6.9 mph - N/A   Overcast
10:05 PM 59.0 °F - 42.8 °F 55% 30.07 in 10.0 mi SE 3.5 mph - N/A   Overcast
10:25 PM 57.2 °F - 44.6 °F 63% 30.06 in 10.0 mi SE 4.6 mph 13.8 mph 0.01 in Rain Light Rain
10:45 PM 55.4 °F - 46.4 °F 72% 30.06 in 10.0 mi Calm Calm - 0.03 in Rain Light Rain
11:05 PM 55.4 °F - 46.4 °F 72% 30.04 in 10.0 mi East 4.6 mph - N/A Rain Light Rain
11:25 PM 53.6 °F - 48.2 °F 82% 30.02 in 10.0 mi ENE 6.9 mph - 0.02 in Rain Light Rain
11:45 PM 53.6 °F - 46.4 °F 77% 30.01 in 10.0 mi East 5.8 mph - 0.02 in   Light Drizzle